SCP
-0 -0 0 0 0 0 0 0 0 -0 0 0 0 0 0 0 0 0 0 -0 0 -0 -0 -0 -0 -0 -0 -0 -0 -0 -0 -0 -0 -0 0 0 0 0 0 0 0 0 0 0 0 0 0 0 0
-0 -0 0 0 0 0 0 0 -0 0 0 0 0 0 0 0 0 -0 0 0 0 -0 -0 -0 -0 -0 -0 -0 -0 -0 -0 -0 -0 -0 -0 -0 0 0 0 0 0 0 0 0 0 0 0 0 0
0 0 -0 -0 0 -0 0 0 0 0 0 0 0 0 0 0 0 0 0 -0 0 0 -0 -0 -0 -0 -0 -0 -0 -0 -0 -0 -0 -0 -0 -0 -0 0 0 0 0 0 0 0 0 0 0 0 0
0 0 0 0 0 0 0 0 0 0 0 0 0 -0 0 0 0 0 0 -0 0 -0 -0 -0 -0 -0 -0 -0 -0 -0 -0 -0 -0 -0 -0 -0 -0 0 0 0 0 0 0 0 0 0 0 0 0
0 -0 0 0 0 0 0 0 0 0 0 0 0 0 0 0 -0 0 0 0 0 -0 0 -0 -1 -0 -0 -0 -0 -0 -0 -0 -0 -0 -0 -0 -0 0 0 0 0 0 0 0 0 0 0 0 0
-0 0 0 0 0 0 0 0 0 0 0 0 0 0 0 0 0 0 0 0 0 0 0 -0 -0 -0 -0 -0 -0 -0 0 0 0 0 -0 0 -0 0 0 0 0 0 0 0 0 0 0 0 0
0 0 0 0 0 0 0 0 0 0 0 0 0 0 0 0 0 0 0 0 0 0 0 0 0 0 0 0 -0 -0 -0 0 0 0 0 0 0 0 0 0 0 0 0 0 0 0 0 0 0
0 0 0 0 0 0 0 0 0 0 0 0 0 0 0 0 0 0 0 0 0 0 0 0 0 0 0 0 0 0 -0 0 0 0 0 0 0 0 0 0 0 0 0 0 0 0 0 0 0
0 0 0 0 0 0 0 0 0 0 0 0 0 0 0 0 0 0 0 0 0 0 0 0 0 0 0 0 0 0 0 0 0 0 0 0 0 0 0 0 0 0 0 0 0 0 0 0 0
0 0 0 0 0 0 0 0 0 0 0 0 0 0 0 0 0 0 0 0 0 0 0 0 0 0 0 0 0 0 0 0 0 0 0 0 0 0 0 0 0 0 0 0 0 0 0 0 0
0 0 0 0 0 0 0 0 0 0 0 0 0 -0 -0 0 0 0 0 0 0 0 0 0 0 0 0 0 0 0 0 0 0 0 0 0 0 0 0 0 0 0 0 0 0 0 0 0 0
0 0 0 0 0 0 0 0 0 0 0 0 0 0 0 0 0 0 0 0 0 0 0 0 0 0 0 0 0 0 0 0 0 0 0 0 0 0 0 0 0 0 0 0 0 0 0 0 0
0 0 0 0 0 0 0 0 0 0 0 0 0 0 0 0 0 0 0 0 0 0 0 0 0 0 0 0 0 0 0 0 0 0 0 0 0 0 0 0 0 0 0 0 0 0 0 0 0
0 0 0 0 0 0 0 0 0 0 0 0 0 0 0 0 0 0 0 0 0 0 0 0 0 0 0 0 0 0 0 0 0 0 0 0 0 0 0 0 0 0 0 0 0 0 0 0 0
0 0 0 0 0 0 0 0 0 0 0 0 0 0 0 0 0 0 0 0 0 0 0 0 0 0 0 0 0 0 0 0 0 0 0 0 0 0 0 0 0 0 0 0 0 0 0 0 0
0 0 0 0 0 0 0 0 0 0 0 0 0 0 0 0 0 0 0 0 0 0 0 0 0 0 0 0 0 0 0 0 0 0 0 0 0 0 0 0 0 0 0 0 0 0 0 0 0
0 0 0 0 0 0 0 0 0 0 0 0 0 0 0 0 0 0 0 0 0 0 0 0 0 0 0 0 0 0 0 0 0 0 0 0 0 0 0 0 0 0 0 0 0 0 0 0 0
0 0 0 0 0 0 0 0 0 0 0 0 0 0 0 0 0 0 0 0 0 0 0 0 0 0 0 0 0 0 0 0 0 0 0 0 0 0 0 0 0 0 0 0 0 0 0 0 0
0 0 0 0 0 0 0 0 0 0 0 -0 0 0 0 0 0 0 0 0 0 0 0 0 0 0 0 0 0 0 0 0 0 0 0 0 0 0 0 0 0 0 0 0 0 0 0 0 0
0 0 0 0 0 0 0 0 0 0 0 0 0 0 0 0 0 0 0 0 0 0 0 0 0 0 0 0 0 0 0 0 0 0 0 0 0 0 0 0 0 0 0 0 0 0 0 0 0
0 0 0 0 0 0 0 0 0 0 0 0 0 0 0 0 0 0 0 0 0 0 0 0 0 0 0 0 0 0 0 0 0 0 0 0 0 0 0 0 0 0 0 0 0 0 0 0 0
0 0 0 0 0 0 0 0 0 0 0 0 0 0 0 0 0 0 0 0 0 0 0 0 0 0 0 0 0 0 0 0 0 0 0 0 0 0 0 0 0 0 0 0 0 0 0 0 0
0 0 0 0 0 0 0 0 -0 -0 0 0 0 0 0 0 0 0 0 0 0 0 0 0 0 0 0 0 0 0 0 0 0 0 0 0 0 0 0 0 0 0 0 0 0 0 0 0 0
0 0 0 0 0 0 0 0 0 0 0 0 0 0 0 0 0 0 0 0 0 0 0 0 0 0 0 0 0 0 0 0 0 0 0 0 0 0 0 0 0 0 0 0 0 0 0 0 0
0 0 0 0 0 0 0 0 0 0 0 0 0 0 0 0 0 0 0 0 0 0 0 0 0 0 0 0 0 0 0 0 0 0 0 0 0 0 0 0 0 0 0 0 0 0 0 0 0
0 0 0 0 0 0 0 0 0 0 0 0 0 0 0 0 0 0 0 0 0 0 0 0 0 0 0 0 0 0 0 0 0 0 0 0 0 0 0 0 0 0 0 0 0 0 0 0 0
0 0 0 0 0 0 0 0 0 0 0 0 0 0 0 0 0 0 0 0 0 0 0 -0 -0 -0 -0 -0 -0 0 0 0 0 0 0 0 0 0 0 0 0 0 0 0 0 0 0 0 0
0 0 0 0 0 0 0 0 0 0 0 0 0 0 0 0 0 0 0 0 -0 -0 -0 -0 -0 -0 -0 0 0 0 0 0 0 0 0 0 0 0 0 0 0 0 0 0 0 0 0 0 0
0 0 0 0 0 0 0 0 0 0 0 0 0 0 0 0 0 0 0 -0 -0 -0 -0 -0 -0 0 0 0 0 0 0 0 0 0 0 0 0 0 0 0 0 0 0 0 0 0 0 0 0
0 0 0 0 0 0 0 0 0 0 0 0 0 0 0 0 0 -0 -0 -0 0 0 0 0 0 0 0 0 0 0 0 0 0 0 0 0 0 0 0 0 0 0 0 0 0 0 0 0 0
Wind_Speed_500mb
10 10 16 14 3 5 2 10 5 18 12 10 11 8 10 16 7 1 3 5 7 21 27 39 40 43 39 35 30 27 24 20 18 16 13 12 11 9 8 7 10 10 13 9 6 5 4 3 3
8 6 13 11 5 3 7 7 18 12 7 9 6 7 9 2 10 3 2 4 11 16 18 35 41 42 42 39 34 29 26 24 22 20 18 16 16 16 13 12 15 19 16 10 7 8 6 5 1
3 5 9 4 6 9 6 8 12 9 7 2 7 3 4 9 7 3 11 6 12 17 21 31 38 41 42 40 37 33 30 28 27 24 21 20 21 22 21 20 21 19 15 13 11 11 10 10 10
7 6 9 3 9 8 8 13 19 14 9 4 6 15 4 8 5 9 13 11 11 18 28 28 37 42 42 42 41 37 35 34 31 29 26 26 30 22 19 22 22 22 19 16 16 15 15 14 13
9 8 5 8 9 6 8 17 10 9 7 4 4 9 21 8 5 7 11 12 10 18 29 32 32 42 44 45 44 42 40 38 36 32 29 30 26 20 19 21 22 21 18 17 18 15 15 12 11
8 4 5 7 14 10 12 13 8 7 3 3 4 12 10 10 11 9 18 15 12 19 25 33 34 37 45 46 47 46 45 42 40 36 33 38 31 25 21 20 21 18 17 17 16 15 12 8 6
4 2 10 11 13 4 9 7 6 15 22 13 6 7 11 3 10 12 23 21 17 20 25 33 34 38 44 46 48 48 48 46 43 40 43 40 34 30 24 21 21 19 18 18 16 14 12 10 8
7 3 9 8 5 10 12 3 6 10 16 13 10 8 2 16 22 27 28 24 24 24 32 32 37 39 44 47 49 50 50 50 48 49 47 45 42 38 30 27 25 24 23 21 18 16 15 13 10
5 5 8 12 3 3 17 6 5 14 23 32 29 38 39 31 37 37 32 27 29 31 35 37 40 41 45 49 50 51 52 51 52 52 51 51 49 47 38 34 32 31 29 25 22 20 17 15 12
6 5 10 14 13 13 32 25 26 27 32 44 47 36 36 34 34 40 40 35 33 33 39 42 43 46 47 48 52 55 56 58 57 57 58 59 56 51 46 40 38 35 32 30 28 26 22 19 17
8 7 12 25 35 18 17 28 34 29 16 41 51 61 50 46 40 38 49 46 36 43 43 42 45 47 51 52 51 55 57 63 63 63 62 60 63 56 52 48 44 43 38 36 34 30 29 26 24
11 20 28 32 26 15 11 30 30 44 50 52 59 60 57 53 46 45 42 43 45 40 47 51 45 49 54 55 57 58 58 59 65 69 68 67 69 59 58 54 50 48 45 42 40 37 36 30 27
14 22 33 33 24 31 31 36 28 57 61 55 51 43 39 41 43 41 36 35 43 45 41 50 58 51 51 56 59 62 64 62 61 64 67 70 70 65 64 59 54 52 50 48 45 43 39 35 30
20 21 31 36 49 47 24 32 24 46 43 42 45 44 44 41 42 38 37 46 48 46 46 41 54 59 52 53 57 62 65 65 64 64 63 66 70 70 66 59 57 57 54 54 51 46 43 40 36
11 11 19 40 32 14 23 19 18 41 19 43 46 49 49 54 47 40 31 20 18 29 40 44 42 55 60 55 55 59 65 64 66 67 66 67 72 72 68 63 63 60 59 57 54 52 49 47 43
9 12 7 12 13 10 14 17 17 34 48 68 75 54 47 43 17 16 11 14 17 20 11 22 31 36 54 60 58 61 61 63 64 67 69 72 74 74 72 70 68 66 65 63 59 57 55 51 48
15 10 17 17 14 12 11 12 25 48 45 63 59 51 46 17 18 21 18 22 27 28 30 26 21 24 37 49 56 56 57 58 61 64 65 70 74 72 74 73 71 71 72 69 66 63 59 57 54
13 16 16 18 14 8 13 22 19 43 52 54 55 49 12 40 30 24 22 19 13 6 15 21 28 26 26 33 42 48 47 49 50 54 59 63 72 70 71 73 74 74 76 73 71 66 64 62 57
16 19 21 15 18 19 14 15 17 44 51 47 34 33 49 42 26 29 32 30 30 28 20 9 2 14 18 18 24 35 43 39 42 48 48 53 60 66 67 72 77 80 82 77 72 70 69 69 63
15 19 18 14 17 6 16 20 23 36 41 50 21 45 43 29 27 31 38 40 42 42 41 33 19 5 4 9 9 14 20 27 33 34 44 52 47 54 63 64 73 80 82 79 77 76 74 72 72
15 17 18 19 15 8 14 17 17 22 16 36 54 43 31 29 27 34 45 52 52 56 58 53 43 28 14 1 12 15 21 27 28 33 35 39 45 52 55 63 67 77 83 82 82 82 83 85 81
19 10 8 9 8 7 14 15 9 19 15 30 42 41 31 26 28 35 40 47 53 56 57 58 55 48 38 19 9 3 7 9 8 15 22 29 37 43 54 59 64 69 80 83 85 87 87 88 88
3 7 5 7 12 11 11 9 11 19 21 17 28 35 31 27 28 33 35 41 45 48 51 51 52 55 52 42 32 21 11 7 10 10 20 25 25 28 31 50 58 61 72 80 82 88 92 95 93
6 7 13 13 4 7 20 13 4 6 13 12 25 31 31 29 28 27 27 33 40 41 43 44 45 46 46 47 45 37 25 16 7 8 13 10 15 25 28 26 46 58 60 75 79 85 91 94 95
4 5 8 5 4 12 9 9 8 5 9 24 31 36 30 28 25 23 27 33 35 37 37 38 38 37 35 35 37 40 38 29 22 19 16 14 16 16 23 31 29 41 50 59 74 79 89 92 94
8 4 6 10 5 12 10 12 11 13 38 47 44 37 29 22 20 21 23 22 24 28 30 29 32 31 30 28 29 30 29 32 36 36 32 24 20 22 28 31 33 37 37 42 55 73 80 87 92
4 4 4 3 1 1 11 15 20 22 21 34 36 30 22 16 15 13 13 19 20 22 24 27 27 31 33 35 34 34 32 33 35 35 35 34 28 27 24 26 33 35 36 38 43 54 69 80 86
8 1 2 3 6 10 10 13 18 12 14 19 22 24 15 8 6 8 10 12 18 20 20 23 28 32 34 35 35 38 40 40 39 36 37 40 42 36 30 29 28 29 35 36 39 47 53 65 76
2 3 6 6 8 5 13 13 14 15 14 16 19 16 10 0 8 6 10 11 15 20 24 28 34 36 41 42 41 39 40 43 42 42 42 43 46 48 46 40 35 31 31 30 38 44 48 55 63
6 10 16 11 25 11 16 18 15 18 20 24 16 13 17 16 10 7 4 10 17 20 25 33 38 43 42 44 48 53 50 46 45 46 48 48 49 50 54 52 48 43 37 36 34 37 43 52 59
Wind_Direction_500mb
310 336 344 309 262 215 330 77 3 27 45 33 350 357 297 278 280 358 154 282 203 217 208 194 198 202 208 214 212 212 216 218 217 209 212 218 230 232 230 213 192 202 224 246 281 306 293 328 101
312 347 321 278 251 292 63 43 65 57 15 332 286 295 265 358 70 13 351 5 208 224 208 202 200 204 209 215 217 218 217 217 223 220 219 226 238 241 222 202 201 218 237 244 270 285 283 281 240
8 32 279 307 284 23 21 80 58 39 75 340 312 262 297 359 60 230 276 291 212 208 217 205 209 210 212 214 217 217 217 220 223 231 236 244 247 240 233 217 222 238 249 258 260 266 270 274 272
71 249 239 272 349 28 5 3 29 326 102 98 330 298 199 254 268 276 302 295 220 216 218 216 210 214 216 216 219 219 220 221 225 233 238 243 249 244 228 227 237 243 251 256 260 264 264 262 264
14 272 269 223 245 112 358 12 31 329 307 121 127 296 319 245 292 322 330 308 257 229 216 224 222 217 218 219 221 223 225 229 231 227 235 236 243 251 234 230 237 239 241 239 250 256 258 256 251
267 242 278 280 4 79 96 46 6 258 309 164 249 288 282 221 264 329 340 322 275 245 231 229 228 225 224 224 222 225 228 230 230 233 227 232 241 255 248 232 239 239 237 239 245 246 252 239 212
273 303 268 341 300 318 101 87 300 358 315 2 66 311 283 166 260 279 316 306 284 250 248 242 236 231 228 229 229 227 229 229 229 228 228 235 243 252 260 248 244 239 237 237 233 228 214 201 197
305 296 278 264 283 308 98 104 271 301 305 320 273 253 322 301 292 287 297 291 276 257 258 246 245 233 233 233 232 232 231 230 229 227 230 234 239 248 255 244 240 240 240 238 232 217 202 200 201
304 297 274 284 354 356 137 187 282 288 269 283 273 268 281 280 292 291 286 278 266 261 257 255 249 243 234 234 234 234 233 231 230 231 231 235 240 246 249 241 234 231 231 231 226 216 211 211 214
240 241 270 333 347 334 327 330 325 313 289 292 295 290 285 264 279 292 288 284 278 264 257 254 248 246 244 238 237 235 234 233 230 229 231 236 241 248 248 239 237 232 231 227 220 213 211 214 219
221 229 307 320 333 355 322 304 301 289 285 273 287 301 303 304 296 295 291 291 270 273 272 264 253 246 243 242 240 239 235 236 233 231 230 235 243 242 241 238 234 232 229 226 223 216 216 219 223
256 268 277 290 302 319 286 301 298 284 271 272 282 287 290 293 290 282 271 276 279 267 262 269 264 250 244 242 241 241 243 240 240 238 232 233 241 240 241 239 234 232 230 226 223 217 220 220 224
272 252 280 293 300 287 287 279 278 282 277 275 282 291 292 293 290 291 293 287 270 270 265 257 266 261 251 245 243 242 245 248 247 242 242 237 242 242 241 238 234 234 232 231 228 221 222 223 225
298 336 296 284 273 267 262 277 297 279 297 286 279 282 288 294 301 307 294 288 295 291 287 272 252 263 257 251 248 247 247 248 249 250 245 241 243 243 244 238 235 234 234 232 232 227 224 225 227
324 311 289 274 269 247 200 294 222 278 313 316 303 296 299 297 307 316 314 317 316 303 281 283 270 251 260 259 253 248 249 247 245 246 245 244 243 244 244 240 238 237 237 234 233 229 225 227 228
260 250 285 267 178 147 129 267 296 314 318 303 297 301 301 306 5 308 291 281 273 261 263 287 287 266 253 260 259 255 249 249 246 245 244 244 244 246 246 241 237 238 238 237 234 232 230 231 232
230 253 255 281 234 126 169 246 278 293 289 282 293 306 305 69 57 21 340 296 273 255 247 242 252 274 267 253 255 255 256 252 248 245 245 247 248 246 246 245 241 239 240 239 237 232 231 234 232
255 295 307 312 315 313 210 242 264 302 296 282 297 299 48 75 48 21 11 10 358 291 252 252 237 238 256 257 248 247 243 249 248 249 245 247 250 249 248 247 244 241 240 238 237 234 231 232 232
287 277 278 283 300 294 294 295 288 279 289 292 290 70 85 75 52 37 33 38 42 41 35 28 270 220 252 266 256 247 239 244 244 242 246 247 250 257 252 248 245 243 242 241 240 236 230 226 225
304 301 288 276 284 7 292 295 291 279 265 270 95 82 74 67 51 47 47 47 45 44 42 40 38 45 227 189 243 248 242 240 241 257 252 246 243 251 256 253 248 245 245 240 237 236 231 228 229
257 252 277 275 304 296 280 267 267 272 302 102 88 85 74 67 58 51 51 52 52 50 46 45 44 44 39 174 241 249 239 244 240 243 248 255 249 245 254 257 254 251 249 246 243 238 235 233 231
269 297 311 341 343 229 53 300 244 270 97 84 81 82 81 71 66 58 53 53 54 53 53 50 49 49 49 48 19 323 282 275 245 287 273 257 257 260 252 257 259 255 255 251 247 244 240 237 235
222 11 328 275 261 309 239 254 252 239 113 98 93 94 86 77 66 59 50 50 53 52 52 49 47 48 48 47 46 29 3 283 228 231 269 286 275 280 270 254 259 258 255 255 253 248 243 240 238
47 277 252 230 180 274 218 202 315 85 141 134 111 104 100 86 75 66 55 55 51 45 45 44 42 43 41 41 45 44 38 27 349 251 288 296 296 295 295 278 256 259 257 257 255 254 252 248 244
142 255 322 301 157 226 53 343 234 74 86 149 130 111 96 88 76 63 50 37 35 31 30 26 27 31 33 34 34 38 39 39 31 16 353 329 303 284 292 293 278 266 265 260 259 254 255 253 249
231 203 182 260 263 302 327 246 249 120 87 100 109 107 100 87 69 53 42 35 24 18 21 21 24 23 25 26 28 27 27 32 32 26 20 6 333 300 283 278 283 287 278 267 257 256 255 256 255
64 208 59 15 33 227 253 275 291 125 102 108 107 96 84 74 69 59 25 8 11 18 16 20 32 35 33 33 29 26 21 18 20 17 11 7 6 1 336 301 283 277 278 277 269 260 256 257 258
184 94 269 74 245 231 263 309 270 29 141 105 108 110 108 92 44 360 6 4 360 7 15 15 23 27 26 24 23 20 18 16 15 8 3 359 355 355 352 350 338 311 293 278 271 267 263 259 259
306 272 210 237 213 234 267 262 48 93 109 114 107 116 120 184 306 303 329 355 5 8 7 11 8 9 8 9 8 8 4 3 358 356 355 352 349 348 346 343 341 341 334 310 288 276 269 264 264
261 254 254 241 263 238 267 250 101 104 116 134 150 201 228 259 266 298 350 18 7 0 2 359 358 355 358 357 356 355 353 349 345 346 345 342 337 337 336 336 337 334 323 318 316 301 285 274 269
Wind_Speed_850mb
10 10 16 14 3 5 2 10 5 18 12 10 11 8 10 16 7 1 3 5 7 21 27 39 40 43 39 35 30 27 24 20 18 16 13 12 11 9 8 7 10 10 13 9 6 5 4 3 3
8 6 13 11 5 3 7 7 18 12 7 9 6 7 9 2 10 3 2 4 11 16 18 35 41 42 42 39 34 29 26 24 22 20 18 16 16 16 13 12 15 19 16 10 7 8 6 5 1
3 5 9 4 6 9 6 8 12 9 7 2 7 3 4 9 7 3 11 6 12 17 21 31 38 41 42 40 37 33 30 28 27 24 21 20 21 22 21 20 21 19 15 13 11 11 10 10 10
7 6 9 3 9 8 8 13 19 14 9 4 6 15 4 8 5 9 13 11 11 18 28 28 37 42 42 42 41 37 35 34 31 29 26 26 30 22 19 22 22 22 19 16 16 15 15 14 13
9 8 5 8 9 6 8 17 10 9 7 4 4 9 21 8 5 7 11 12 10 18 29 32 32 42 44 45 44 42 40 38 36 32 29 30 26 20 19 21 22 21 18 17 18 15 15 12 11
8 4 5 7 14 10 12 13 8 7 3 3 4 12 10 10 11 9 18 15 12 19 25 33 34 37 45 46 47 46 45 42 40 36 33 38 31 25 21 20 21 18 17 17 16 15 12 8 6
4 2 10 11 13 4 9 7 6 15 22 13 6 7 11 3 10 12 23 21 17 20 25 33 34 38 44 46 48 48 48 46 43 40 43 40 34 30 24 21 21 19 18 18 16 14 12 10 8
7 3 9 8 5 10 12 3 6 10 16 13 10 8 2 16 22 27 28 24 24 24 32 32 37 39 44 47 49 50 50 50 48 49 47 45 42 38 30 27 25 24 23 21 18 16 15 13 10
5 5 8 12 3 3 17 6 5 14 23 32 29 38 39 31 37 37 32 27 29 31 35 37 40 41 45 49 50 51 52 51 52 52 51 51 49 47 38 34 32 31 29 25 22 20 17 15 12
6 5 10 14 13 13 32 25 26 27 32 44 47 36 36 34 34 40 40 35 33 33 39 42 43 46 47 48 52 55 56 58 57 57 58 59 56 51 46 40 38 35 32 30 28 26 22 19 17
8 7 12 25 35 18 17 28 34 29 16 41 51 61 50 46 40 38 49 46 36 43 43 42 45 47 51 52 51 55 57 63 63 63 62 60 63 56 52 48 44 43 38 36 34 30 29 26 24
11 20 28 32 26 15 11 30 30 44 50 52 59 60 57 53 46 45 42 43 45 40 47 51 45 49 54 55 57 58 58 59 65 69 68 67 69 59 58 54 50 48 45 42 40 37 36 30 27
14 22 33 33 24 31 31 36 28 57 61 55 51 43 39 41 43 41 36 35 43 45 41 50 58 51 51 56 59 62 64 62 61 64 67 70 70 65 64 59 54 52 50 48 45 43 39 35 30
20 21 31 36 49 47 24 32 24 46 43 42 45 44 44 41 42 38 37 46 48 46 46 41 54 59 52 53 57 62 65 65 64 64 63 66 70 70 66 59 57 57 54 54 51 46 43 40 36
11 11 19 40 32 14 23 19 18 41 19 43 46 49 49 54 47 40 31 20 18 29 40 44 42 55 60 55 55 59 65 64 66 67 66 67 72 72 68 63 63 60 59 57 54 52 49 47 43
9 12 7 12 13 10 14 17 17 34 48 68 75 54 47 43 17 16 11 14 17 20 11 22 31 36 54 60 58 61 61 63 64 67 69 72 74 74 72 70 68 66 65 63 59 57 55 51 48
15 10 17 17 14 12 11 12 25 48 45 63 59 51 46 17 18 21 18 22 27 28 30 26 21 24 37 49 56 56 57 58 61 64 65 70 74 72 74 73 71 71 72 69 66 63 59 57 54
13 16 16 18 14 8 13 22 19 43 52 54 55 49 12 40 30 24 22 19 13 6 15 21 28 26 26 33 42 48 47 49 50 54 59 63 72 70 71 73 74 74 76 73 71 66 64 62 57
16 19 21 15 18 19 14 15 17 44 51 47 34 33 49 42 26 29 32 30 30 28 20 9 2 14 18 18 24 35 43 39 42 48 48 53 60 66 67 72 77 80 82 77 72 70 69 69 63
15 19 18 14 17 6 16 20 23 36 41 50 21 45 43 29 27 31 38 40 42 42 41 33 19 5 4 9 9 14 20 27 33 34 44 52 47 54 63 64 73 80 82 79 77 76 74 72 72
15 17 18 19 15 8 14 17 17 22 16 36 54 43 31 29 27 34 45 52 52 56 58 53 43 28 14 1 12 15 21 27 28 33 35 39 45 52 55 63 67 77 83 82 82 82 83 85 81
19 10 8 9 8 7 14 15 9 19 15 30 42 41 31 26 28 35 40 47 53 56 57 58 55 48 38 19 9 3 7 9 8 15 22 29 37 43 54 59 64 69 80 83 85 87 87 88 88
3 7 5 7 12 11 11 9 11 19 21 17 28 35 31 27 28 33 35 41 45 48 51 51 52 55 52 42 32 21 11 7 10 10 20 25 25 28 31 50 58 61 72 80 82 88 92 95 93
6 7 13 13 4 7 20 13 4 6 13 12 25 31 31 29 28 27 27 33 40 41 43 44 45 46 46 47 45 37 25 16 7 8 13 10 15 25 28 26 46 58 60 75 79 85 91 94 95
4 5 8 5 4 12 9 9 8 5 9 24 31 36 30 28 25 23 27 33 35 37 37 38 38 37 35 35 37 40 38 29 22 19 16 14 16 16 23 31 29 41 50 59 74 79 89 92 94
8 4 6 10 5 12 10 12 11 13 38 47 44 37 29 22 20 21 23 22 24 28 30 29 32 31 30 28 29 30 29 32 36 36 32 24 20 22 28 31 33 37 37 42 55 73 80 87 92
4 4 4 3 1 1 11 15 20 22 21 34 36 30 22 16 15 13 13 19 20 22 24 27 27 31 33 35 34 34 32 33 35 35 35 34 28 27 24 26 33 35 36 38 43 54 69 80 86
8 1 2 3 6 10 10 13 18 12 14 19 22 24 15 8 6 8 10 12 18 20 20 23 28 32 34 35 35 38 40 40 39 36 37 40 42 36 30 29 28 29 35 36 39 47 53 65 76
2 3 6 6 8 5 13 13 14 15 14 16 19 16 10 0 8 6 10 11 15 20 24 28 34 36 41 42 41 39 40 43 42 42 42 43 46 48 46 40 35 31 31 30 38 44 48 55 63
6 10 16 11 25 11 16 18 15 18 20 24 16 13 17 16 10 7 4 10 17 20 25 33 38 43 42 44 48 53 50 46 45 46 48 48 49 50 54 52 48 43 37 36 34 37 43 52 59
Wind_Direction_850mb
310 336 344 309 262 215 330 77 3 27 45 33 350 357 297 278 280 358 154 282 203 217 208 194 198 202 208 214 212 212 216 218 217 209 212 218 230 232 230 213 192 202 224 246 281 306 293 328 101
312 347 321 278 251 292 63 43 65 57 15 332 286 295 265 358 70 13 351 5 208 224 208 202 200 204 209 215 217 218 217 217 223 220 219 226 238 241 222 202 201 218 237 244 270 285 283 281 240
8 32 279 307 284 23 21 80 58 39 75 340 312 262 297 359 60 230 276 291 212 208 217 205 209 210 212 214 217 217 217 220 223 231 236 244 247 240 233 217 222 238 249 258 260 266 270 274 272
71 249 239 272 349 28 5 3 29 326 102 98 330 298 199 254 268 276 302 295 220 216 218 216 210 214 216 216 219 219 220 221 225 233 238 243 249 244 228 227 237 243 251 256 260 264 264 262 264
14 272 269 223 245 112 358 12 31 329 307 121 127 296 319 245 292 322 330 308 257 229 216 224 222 217 218 219 221 223 225 229 231 227 235 236 243 251 234 230 237 239 241 239 250 256 258 256 251
267 242 278 280 4 79 96 46 6 258 309 164 249 288 282 221 264 329 340 322 275 245 231 229 228 225 224 224 222 225 228 230 230 233 227 232 241 255 248 232 239 239 237 239 245 246 252 239 212
273 303 268 341 300 318 101 87 300 358 315 2 66 311 283 166 260 279 316 306 284 250 248 242 236 231 228 229 229 227 229 229 229 228 228 235 243 252 260 248 244 239 237 237 233 228 214 201 197
305 296 278 264 283 308 98 104 271 301 305 320 273 253 322 301 292 287 297 291 276 257 258 246 245 233 233 233 232 232 231 230 229 227 230 234 239 248 255 244 240 240 240 238 232 217 202 200 201
304 297 274 284 354 356 137 187 282 288 269 283 273 268 281 280 292 291 286 278 266 261 257 255 249 243 234 234 234 234 233 231 230 231 231 235 240 246 249 241 234 231 231 231 226 216 211 211 214
240 241 270 333 347 334 327 330 325 313 289 292 295 290 285 264 279 292 288 284 278 264 257 254 248 246 244 238 237 235 234 233 230 229 231 236 241 248 248 239 237 232 231 227 220 213 211 214 219
221 229 307 320 333 355 322 304 301 289 285 273 287 301 303 304 296 295 291 291 270 273 272 264 253 246 243 242 240 239 235 236 233 231 230 235 243 242 241 238 234 232 229 226 223 216 216 219 223
256 268 277 290 302 319 286 301 298 284 271 272 282 287 290 293 290 282 271 276 279 267 262 269 264 250 244 242 241 241 243 240 240 238 232 233 241 240 241 239 234 232 230 226 223 217 220 220 224
272 252 280 293 300 287 287 279 278 282 277 275 282 291 292 293 290 291 293 287 270 270 265 257 266 261 251 245 243 242 245 248 247 242 242 237 242 242 241 238 234 234 232 231 228 221 222 223 225
298 336 296 284 273 267 262 277 297 279 297 286 279 282 288 294 301 307 294 288 295 291 287 272 252 263 257 251 248 247 247 248 249 250 245 241 243 243 244 238 235 234 234 232 232 227 224 225 227
324 311 289 274 269 247 200 294 222 278 313 316 303 296 299 297 307 316 314 317 316 303 281 283 270 251 260 259 253 248 249 247 245 246 245 244 243 244 244 240 238 237 237 234 233 229 225 227 228
260 250 285 267 178 147 129 267 296 314 318 303 297 301 301 306 5 308 291 281 273 261 263 287 287 266 253 260 259 255 249 249 246 245 244 244 244 246 246 241 237 238 238 237 234 232 230 231 232
230 253 255 281 234 126 169 246 278 293 289 282 293 306 305 69 57 21 340 296 273 255 247 242 252 274 267 253 255 255 256 252 248 245 245 247 248 246 246 245 241 239 240 239 237 232 231 234 232
255 295 307 312 315 313 210 242 264 302 296 282 297 299 48 75 48 21 11 10 358 291 252 252 237 238 256 257 248 247 243 249 248 249 245 247 250 249 248 247 244 241 240 238 237 234 231 232 232
287 277 278 283 300 294 294 295 288 279 289 292 290 70 85 75 52 37 33 38 42 41 35 28 270 220 252 266 256 247 239 244 244 242 246 247 250 257 252 248 245 243 242 241 240 236 230 226 225
304 301 288 276 284 7 292 295 291 279 265 270 95 82 74 67 51 47 47 47 45 44 42 40 38 45 227 189 243 248 242 240 241 257 252 246 243 251 256 253 248 245 245 240 237 236 231 228 229
257 252 277 275 304 296 280 267 267 272 302 102 88 85 74 67 58 51 51 52 52 50 46 45 44 44 39 174 241 249 239 244 240 243 248 255 249 245 254 257 254 251 249 246 243 238 235 233 231
269 297 311 341 343 229 53 300 244 270 97 84 81 82 81 71 66 58 53 53 54 53 53 50 49 49 49 48 19 323 282 275 245 287 273 257 257 260 252 257 259 255 255 251 247 244 240 237 235
222 11 328 275 261 309 239 254 252 239 113 98 93 94 86 77 66 59 50 50 53 52 52 49 47 48 48 47 46 29 3 283 228 231 269 286 275 280 270 254 259 258 255 255 253 248 243 240 238
47 277 252 230 180 274 218 202 315 85 141 134 111 104 100 86 75 66 55 55 51 45 45 44 42 43 41 41 45 44 38 27 349 251 288 296 296 295 295 278 256 259 257 257 255 254 252 248 244
142 255 322 301 157 226 53 343 234 74 86 149 130 111 96 88 76 63 50 37 35 31 30 26 27 31 33 34 34 38 39 39 31 16 353 329 303 284 292 293 278 266 265 260 259 254 255 253 249
231 203 182 260 263 302 327 246 249 120 87 100 109 107 100 87 69 53 42 35 24 18 21 21 24 23 25 26 28 27 27 32 32 26 20 6 333 300 283 278 283 287 278 267 257 256 255 256 255
64 208 59 15 33 227 253 275 291 125 102 108 107 96 84 74 69 59 25 8 11 18 16 20 32 35 33 33 29 26 21 18 20 17 11 7 6 1 336 301 283 277 278 277 269 260 256 257 258
184 94 269 74 245 231 263 309 270 29 141 105 108 110 108 92 44 360 6 4 360 7 15 15 23 27 26 24 23 20 18 16 15 8 3 359 355 355 352 350 338 311 293 278 271 267 263 259 259
306 272 210 237 213 234 267 262 48 93 109 114 107 116 120 184 306 303 329 355 5 8 7 11 8 9 8 9 8 8 4 3 358 356 355 352 349 348 346 343 341 341 334 310 288 276 269 264 264
261 254 254 241 263 238 267 250 101 104 116 134 150 201 228 259 266 298 350 18 7 0 2 359 358 355 358 357 356 355 353 349 345 346 345 342 337 337 336 336 337 334 323 318 316 301 285 274 269